SKW6194 KLAX-KSMF

Flight info

Callsign SKW6194
Flight time 1h 3m
Altitude 30000
Route LADYJ4 CSTRO NURAY SUUTR4
Aircraft CRJ7/M-SDFGIRWY/S

Departure

Time 2026-05-05 00:29
Airport Los Angeles International Airport (KLAX)

Arrival

Time 2026-05-05 01:32
Airport Sacramento International Airport (KSMF)
Time Latitude Longitude Altitude Speed Heading
2026-05-05 00:14 33.94113 -118.39376 94 ft 0 kts 339°
2026-05-05 00:19 33.94103 -118.39371 95 ft 4 kts 336°
2026-05-05 00:20 33.94086 -118.39354 95 ft 4 kts 278°
2026-05-05 00:20 33.94089 -118.39327 95 ft 4 kts 247°
2026-05-05 00:20 33.94104 -118.39318 94 ft 4 kts 184°
2026-05-05 00:20 33.94122 -118.39316 94 ft 1 kts 184°
2026-05-05 00:22 33.94116 -118.39317 94 ft 2 kts 194°
2026-05-05 00:22 33.94099 -118.39337 96 ft 5 kts 240°
2026-05-05 00:22 33.94086 -118.39380 97 ft 4 kts 233°
2026-05-05 00:23 33.94073 -118.39382 97 ft 3 kts 162°
2026-05-05 00:23 33.94058 -118.39351 96 ft 7 kts 94°
2026-05-05 00:23 33.94049 -118.39267 97 ft 13 kts 115°
2026-05-05 00:23 33.93974 -118.39214 98 ft 10 kts 123°
2026-05-05 00:24 33.93967 -118.39172 101 ft 9 kts 92°
2026-05-05 00:24 33.93972 -118.39084 100 ft 11 kts 83°
2026-05-05 00:24 33.93982 -118.38988 100 ft 13 kts 83°
2026-05-05 00:24 33.93995 -118.38865 100 ft 16 kts 83°
2026-05-05 00:25 33.94008 -118.38729 100 ft 16 kts 84°
2026-05-05 00:25 33.94020 -118.38594 101 ft 16 kts 84°
2026-05-05 00:25 33.94033 -118.38459 102 ft 16 kts 83°
2026-05-05 00:25 33.94047 -118.38322 102 ft 17 kts 83°
2026-05-05 00:26 33.94062 -118.38181 102 ft 17 kts 83°
2026-05-05 00:26 33.94067 -118.38035 102 ft 17 kts 117°
2026-05-05 00:26 33.93992 -118.38025 106 ft 11 kts 238°
2026-05-05 00:26 33.93980 -118.38076 108 ft 0 kts 263°
2026-05-05 00:27 33.93980 -118.38077 108 ft 0 kts 263°
2026-05-05 00:27 33.93980 -118.38079 108 ft 0 kts 263°
2026-05-05 00:27 33.93980 -118.38080 108 ft 0 kts 263°
2026-05-05 00:27 33.93971 -118.38164 108 ft 33 kts 262°
2026-05-05 00:28 33.93919 -118.38660 107 ft 85 kts 263°
2026-05-05 00:28 33.93828 -118.39541 106 ft 124 kts 262°
2026-05-05 00:28 33.93772 -118.40101 122 ft 137 kts 260°
2026-05-05 00:28 33.93641 -118.41632 562 ft 145 kts 263°
2026-05-05 00:29 33.93536 -118.42910 841 ft 164 kts 262°
2026-05-05 00:29 33.93390 -118.44296 1519 ft 162 kts 259°
2026-05-05 00:29 33.93239 -118.45607 2339 ft 156 kts 261°
2026-05-05 00:29 33.93156 -118.46477 2805 ft 155 kts 262°
2026-05-05 00:30 33.92989 -118.48190 3542 ft 163 kts 262°
2026-05-05 00:30 33.92885 -118.49177 3613 ft 187 kts 262°
2026-05-05 00:30 33.92731 -118.50845 3913 ft 212 kts 263°
2026-05-05 00:30 33.92585 -118.52686 4371 ft 230 kts 264°
2026-05-05 00:31 33.92420 -118.54696 4662 ft 256 kts 264°
2026-05-05 00:31 33.92230 -118.56922 4685 ft 272 kts 264°
2026-05-05 00:31 33.92047 -118.59169 4744 ft 271 kts 265°
2026-05-05 00:31 33.92327 -118.61330 5807 ft 260 kts 297°
2026-05-05 00:32 33.93399 -118.63078 6700 ft 262 kts 309°
2026-05-05 00:32 33.94677 -118.64683 7389 ft 269 kts 315°
2026-05-05 00:32 33.96237 -118.65977 8074 ft 276 kts 327°
2026-05-05 00:32 33.97946 -118.67081 8725 ft 281 kts 329°
2026-05-05 00:33 33.99811 -118.67873 9365 ft 292 kts 352°
2026-05-05 00:33 34.01862 -118.67862 10017 ft 298 kts
2026-05-05 00:33 34.03943 -118.67648 10364 ft 314 kts
2026-05-05 00:33 34.06184 -118.67389 10584 ft 333 kts
2026-05-05 00:34 34.07897 -118.67198 10740 ft 345 kts
2026-05-05 00:34 34.10299 -118.66747 11173 ft 352 kts
2026-05-05 00:34 34.12711 -118.66121 11749 ft 356 kts 11°
2026-05-05 00:34 34.15136 -118.65468 12299 ft 359 kts 10°
2026-05-05 00:35 34.17593 -118.64830 12865 ft 363 kts
2026-05-05 00:35 34.20081 -118.64238 13503 ft 367 kts
2026-05-05 00:35 34.22607 -118.63641 14077 ft 371 kts
2026-05-05 00:35 34.25168 -118.63292 14595 ft 371 kts 354°
2026-05-05 00:36 34.27722 -118.63750 15134 ft 372 kts 345°
2026-05-05 00:36 34.30255 -118.64445 15687 ft 375 kts 343°
2026-05-05 00:36 34.32808 -118.65156 16188 ft 379 kts 343°
2026-05-05 00:36 34.35403 -118.65830 16703 ft 383 kts 345°
2026-05-05 00:37 34.38036 -118.66439 17163 ft 387 kts 345°
2026-05-05 00:37 34.40698 -118.67046 17675 ft 391 kts 345°
2026-05-05 00:37 34.43391 -118.67632 18175 ft 395 kts 346°
2026-05-05 00:37 34.46113 -118.68160 18604 ft 398 kts 347°
2026-05-05 00:38 34.48860 -118.68687 19046 ft 401 kts 346°
2026-05-05 00:38 34.51624 -118.69227 19475 ft 404 kts 346°
2026-05-05 00:38 34.54406 -118.69776 19911 ft 406 kts 345°
2026-05-05 00:38 34.57200 -118.70325 20330 ft 409 kts 345°
2026-05-05 00:39 34.60019 -118.70876 20751 ft 411 kts 345°
2026-05-05 00:39 34.62853 -118.71430 21166 ft 414 kts 345°
2026-05-05 00:39 34.65700 -118.71993 21571 ft 416 kts 344°
2026-05-05 00:39 34.68566 -118.72563 21968 ft 418 kts 345°
2026-05-05 00:40 34.71432 -118.73178 22326 ft 417 kts 338°
2026-05-05 00:40 34.74103 -118.74436 22667 ft 408 kts 326°
2026-05-05 00:40 34.76575 -118.76101 23067 ft 406 kts 322°
2026-05-05 00:40 34.78997 -118.77878 23447 ft 407 kts 321°
2026-05-05 00:41 34.81431 -118.79664 23749 ft 410 kts 322°
2026-05-05 00:41 34.83872 -118.81395 24015 ft 414 kts 323°
2026-05-05 00:41 34.86390 -118.83118 24272 ft 416 kts 323°
2026-05-05 00:41 34.88919 -118.84856 24543 ft 418 kts 323°
2026-05-05 00:42 34.91489 -118.86624 24802 ft 420 kts 323°
2026-05-05 00:42 34.94004 -118.88358 25005 ft 422 kts 323°
2026-05-05 00:42 34.96568 -118.90125 25240 ft 425 kts 323°
2026-05-05 00:42 34.99147 -118.91904 25479 ft 427 kts 322°
2026-05-05 00:43 35.01741 -118.93698 25608 ft 432 kts 323°
2026-05-05 00:43 35.04388 -118.95526 25612 ft 441 kts 323°
2026-05-05 00:43 35.07077 -118.97384 25634 ft 448 kts 323°
2026-05-05 00:43 35.09803 -118.99270 25827 ft 451 kts 323°
2026-05-05 00:44 35.12532 -119.01157 26118 ft 451 kts 323°
2026-05-05 00:44 35.15258 -119.03049 26401 ft 451 kts 323°
2026-05-05 00:44 35.17988 -119.04943 26683 ft 451 kts 322°
2026-05-05 00:44 35.20719 -119.06838 26954 ft 451 kts 322°
2026-05-05 00:45 35.23451 -119.08737 27240 ft 451 kts 322°
2026-05-05 00:45 35.26178 -119.10633 27526 ft 451 kts 322°
2026-05-05 00:45 35.28904 -119.12529 27799 ft 451 kts 322°
2026-05-05 00:45 35.31624 -119.14423 28074 ft 450 kts 321°
2026-05-05 00:46 35.34345 -119.16318 28349 ft 450 kts 321°
2026-05-05 00:46 35.37069 -119.18218 28621 ft 450 kts 321°
2026-05-05 00:46 35.39790 -119.20117 28878 ft 450 kts 321°
2026-05-05 00:46 35.42498 -119.22017 29148 ft 449 kts 321°
2026-05-05 00:47 35.45269 -119.23833 29396 ft 456 kts 327°
2026-05-05 00:47 35.48260 -119.25232 29653 ft 464 kts 333°
2026-05-05 00:47 35.51366 -119.26365 29849 ft 466 kts 335°
2026-05-05 00:48 35.57583 -119.28623 29985 ft 465 kts 333°
2026-05-05 00:48 35.63737 -119.31127 30011 ft 466 kts 333°
2026-05-05 00:49 35.69895 -119.33591 30010 ft 466 kts 333°
2026-05-05 00:49 35.76059 -119.36071 30006 ft 465 kts 334°
2026-05-05 00:50 35.82203 -119.38549 30006 ft 464 kts 334°
2026-05-05 00:50 35.88338 -119.41026 30010 ft 463 kts 334°
2026-05-05 00:51 35.94458 -119.43503 30008 ft 462 kts 335°
2026-05-05 00:51 36.00566 -119.45978 30014 ft 462 kts 335°
2026-05-05 00:52 36.06664 -119.48452 30025 ft 461 kts 335°
2026-05-05 00:52 36.12754 -119.50931 30034 ft 460 kts 336°
2026-05-05 00:53 36.18829 -119.53406 30034 ft 459 kts 336°
2026-05-05 00:53 36.24897 -119.55881 30031 ft 459 kts 337°
2026-05-05 00:54 36.30954 -119.58356 30028 ft 458 kts 338°
2026-05-05 00:54 36.36989 -119.60825 30027 ft 456 kts 338°
2026-05-05 00:55 36.43015 -119.63294 30027 ft 455 kts 339°
2026-05-05 00:55 36.49002 -119.65753 30027 ft 454 kts 339°
2026-05-05 00:56 36.52765 -119.67300 30029 ft 453 kts 340°
2026-05-05 00:56 36.58774 -119.69810 30029 ft 451 kts 336°
2026-05-05 00:57 36.64221 -119.73572 30038 ft 447 kts 324°
2026-05-05 00:57 36.69326 -119.77889 30035 ft 446 kts 325°
2026-05-05 00:58 36.74562 -119.82027 30035 ft 445 kts 327°
2026-05-05 00:58 36.79789 -119.86162 30038 ft 444 kts 327°
2026-05-05 00:59 36.85009 -119.90294 30034 ft 444 kts 328°
2026-05-05 00:59 36.90211 -119.94424 30024 ft 443 kts 328°
2026-05-05 01:00 36.95403 -119.98553 30025 ft 442 kts 328°
2026-05-05 01:00 37.00586 -120.02677 30026 ft 441 kts 328°
2026-05-05 01:01 37.05759 -120.06803 30020 ft 440 kts 329°
2026-05-05 01:01 37.10925 -120.10929 30024 ft 440 kts 329°
2026-05-05 01:02 37.16076 -120.15049 30028 ft 439 kts 329°
2026-05-05 01:02 37.21238 -120.19187 30026 ft 441 kts 330°
2026-05-05 01:03 37.26406 -120.23337 30023 ft 442 kts 330°
2026-05-05 01:03 37.29004 -120.25408 29634 ft 445 kts 331°
2026-05-05 01:03 37.31654 -120.27457 28848 ft 448 kts 332°
2026-05-05 01:03 37.34311 -120.29522 28092 ft 450 kts 332°
2026-05-05 01:04 37.36977 -120.31603 27357 ft 452 kts 332°
2026-05-05 01:04 37.42343 -120.35791 25945 ft 455 kts 332°
2026-05-05 01:04 37.45035 -120.37890 25251 ft 456 kts 332°
2026-05-05 01:05 37.47714 -120.40048 24578 ft 459 kts 329°
2026-05-05 01:05 37.50288 -120.42451 23901 ft 461 kts 325°
2026-05-05 01:05 37.52756 -120.45009 23146 ft 455 kts 323°
2026-05-05 01:05 37.55153 -120.47530 22377 ft 440 kts 323°
2026-05-05 01:06 37.57465 -120.49938 21682 ft 424 kts 324°
2026-05-05 01:06 37.59727 -120.52220 21076 ft 408 kts 324°
2026-05-05 01:06 37.61911 -120.54404 20758 ft 397 kts 324°
2026-05-05 01:06 37.64064 -120.56559 20439 ft 394 kts 324°
2026-05-05 01:07 37.66199 -120.58703 20127 ft 390 kts 324°
2026-05-05 01:07 37.68322 -120.60826 19818 ft 389 kts 324°
2026-05-05 01:07 37.70406 -120.62920 19509 ft 388 kts 324°
2026-05-05 01:07 37.72520 -120.65048 19179 ft 389 kts 324°
2026-05-05 01:08 37.74636 -120.67180 18856 ft 390 kts 324°
2026-05-05 01:08 37.76758 -120.69310 18526 ft 390 kts 324°
2026-05-05 01:08 37.78886 -120.71452 18163 ft 391 kts 324°
2026-05-05 01:08 37.81013 -120.73595 17783 ft 392 kts 324°
2026-05-05 01:09 37.83143 -120.75746 17412 ft 391 kts 324°
2026-05-05 01:09 37.85262 -120.77887 17055 ft 389 kts 323°
2026-05-05 01:09 37.87379 -120.80027 16623 ft 390 kts 323°
2026-05-05 01:09 37.89496 -120.82175 16193 ft 390 kts 323°
2026-05-05 01:10 37.91606 -120.84322 15756 ft 389 kts 323°
2026-05-05 01:10 37.93714 -120.86470 15340 ft 388 kts 322°
2026-05-05 01:10 37.95801 -120.88599 14936 ft 380 kts 322°
2026-05-05 01:10 37.97840 -120.90675 14550 ft 371 kts 322°
2026-05-05 01:11 37.99825 -120.92700 14153 ft 363 kts 322°
2026-05-05 01:11 38.01771 -120.94686 13740 ft 355 kts 322°
2026-05-05 01:11 38.03674 -120.96631 13308 ft 348 kts 322°
2026-05-05 01:11 38.05529 -120.98529 13180 ft 337 kts 322°
2026-05-05 01:12 38.07335 -121.00391 12989 ft 335 kts 320°
2026-05-05 01:12 38.09022 -121.02475 12536 ft 341 kts 313°
2026-05-05 01:12 38.10571 -121.04775 12093 ft 345 kts 310°
2026-05-05 01:12 38.12097 -121.07137 11661 ft 347 kts 310°
2026-05-05 01:13 38.13624 -121.09493 11238 ft 344 kts 310°
2026-05-05 01:13 38.15137 -121.11810 10818 ft 337 kts 311°
2026-05-05 01:13 38.16644 -121.14053 10412 ft 331 kts 311°
2026-05-05 01:13 38.18128 -121.16265 10006 ft 325 kts 311°
2026-05-05 01:14 38.19591 -121.18409 9573 ft 317 kts 312°
2026-05-05 01:14 38.21011 -121.20486 9151 ft 305 kts 312°
2026-05-05 01:14 38.22413 -121.22414 9010 ft 286 kts 315°
2026-05-05 01:14 38.23318 -121.23577 8999 ft 273 kts 316°
2026-05-05 01:15 38.24405 -121.24931 8994 ft 269 kts 316°
2026-05-05 01:15 38.25745 -121.26570 8978 ft 267 kts 317°
2026-05-05 01:15 38.27100 -121.28228 8982 ft 274 kts 316°
2026-05-05 01:15 38.28480 -121.29948 9003 ft 281 kts 316°
2026-05-05 01:16 38.29880 -121.31706 9032 ft 286 kts 316°
2026-05-05 01:16 38.31304 -121.33510 9050 ft 290 kts 316°
2026-05-05 01:16 38.32749 -121.35342 9020 ft 294 kts 316°
2026-05-05 01:16 38.34200 -121.37183 9024 ft 296 kts 316°
2026-05-05 01:17 38.35657 -121.39030 9022 ft 295 kts 316°
2026-05-05 01:17 38.37106 -121.40871 9019 ft 294 kts 316°
2026-05-05 01:17 38.38554 -121.42713 9020 ft 294 kts 315°
2026-05-05 01:17 38.40001 -121.44554 9021 ft 293 kts 316°
2026-05-05 01:18 38.41440 -121.46390 9012 ft 293 kts 315°
2026-05-05 01:18 38.42884 -121.48228 9014 ft 293 kts 316°
2026-05-05 01:18 38.44327 -121.50060 9020 ft 293 kts 316°
2026-05-05 01:18 38.45758 -121.51883 9017 ft 288 kts 315°
2026-05-05 01:19 38.47162 -121.53668 8996 ft 283 kts 316°
2026-05-05 01:19 38.48619 -121.55404 8616 ft 290 kts 320°
2026-05-05 01:19 38.50208 -121.57042 8245 ft 296 kts 322°
2026-05-05 01:19 38.51854 -121.58645 7874 ft 300 kts 323°
2026-05-05 01:20 38.53531 -121.60269 7509 ft 304 kts 322°
2026-05-05 01:20 38.55221 -121.61909 7141 ft 306 kts 322°
2026-05-05 01:20 38.56905 -121.63584 6776 ft 308 kts 321°
2026-05-05 01:20 38.58652 -121.65131 6390 ft 303 kts 333°
2026-05-05 01:21 38.60589 -121.66071 6002 ft 292 kts 342°
2026-05-05 01:21 38.62488 -121.66764 5619 ft 279 kts 344°
2026-05-05 01:21 38.64335 -121.67399 5255 ft 269 kts 344°
2026-05-05 01:21 38.66108 -121.68005 4912 ft 259 kts 343°
2026-05-05 01:22 38.67814 -121.68619 4582 ft 251 kts 342°
2026-05-05 01:22 38.69472 -121.69250 4275 ft 247 kts 342°
2026-05-05 01:22 38.71122 -121.69879 3993 ft 247 kts 343°
2026-05-05 01:22 38.72756 -121.70380 3981 ft 237 kts 345°
2026-05-05 01:23 38.74322 -121.70888 3964 ft 228 kts 344°
2026-05-05 01:23 38.75826 -121.71390 3966 ft 219 kts 344°
2026-05-05 01:23 38.77268 -121.71874 3969 ft 210 kts 344°
2026-05-05 01:23 38.78680 -121.72349 3843 ft 214 kts 344°
2026-05-05 01:24 38.80154 -121.72846 3551 ft 223 kts 344°
2026-05-05 01:24 38.81642 -121.73343 3300 ft 220 kts 344°
2026-05-05 01:24 38.83121 -121.73831 3015 ft 218 kts 344°
2026-05-05 01:24 38.84588 -121.74310 2753 ft 216 kts 343°
2026-05-05 01:25 38.86042 -121.74776 2475 ft 214 kts 344°
2026-05-05 01:25 38.87486 -121.75205 2227 ft 211 kts 351°
2026-05-05 01:25 38.88861 -121.74766 2083 ft 205 kts 36°
2026-05-05 01:25 38.89579 -121.73299 2033 ft 193 kts 83°
2026-05-05 01:26 38.89489 -121.71635 2023 ft 185 kts 100°
2026-05-05 01:26 38.89302 -121.69992 2001 ft 187 kts 101°
2026-05-05 01:26 38.89089 -121.68338 2011 ft 193 kts 102°
2026-05-05 01:26 38.88850 -121.66582 2003 ft 200 kts 102°
2026-05-05 01:27 38.88509 -121.64870 1990 ft 201 kts 120°
2026-05-05 01:27 38.87481 -121.63684 1965 ft 197 kts 151°
2026-05-05 01:27 38.86318 -121.62785 1947 ft 193 kts 152°
2026-05-05 01:27 38.85171 -121.61922 1940 ft 192 kts 152°
2026-05-05 01:28 38.84071 -121.61114 1937 ft 173 kts 152°
2026-05-05 01:28 38.83046 -121.60369 1916 ft 166 kts 153°
2026-05-05 01:28 38.82052 -121.59649 1906 ft 163 kts 153°
2026-05-05 01:28 38.81068 -121.58935 1897 ft 162 kts 153°
2026-05-05 01:29 38.80120 -121.58244 1902 ft 152 kts 153°
2026-05-05 01:29 38.79129 -121.57900 1748 ft 149 kts 187°
2026-05-05 01:29 38.78108 -121.57967 1538 ft 145 kts 181°
2026-05-05 01:29 38.77118 -121.57934 1359 ft 141 kts 182°
2026-05-05 01:30 38.76146 -121.57924 1187 ft 139 kts 183°
2026-05-05 01:30 38.75175 -121.57932 987 ft 140 kts 182°
2026-05-05 01:30 38.74195 -121.57955 769 ft 141 kts 181°
2026-05-05 01:30 38.73217 -121.57979 571 ft 141 kts 180°
2026-05-05 01:31 38.72239 -121.57995 378 ft 140 kts 178°
2026-05-05 01:31 38.71271 -121.58000 187 ft 139 kts 178°
2026-05-05 01:31 38.70319 -121.58017 38 ft 134 kts 178°
2026-05-05 01:31 38.69537 -121.58018 22 ft 87 kts 181°
2026-05-05 01:32 38.69202 -121.58087 21 ft 34 kts 205°
2026-05-05 01:32 38.69080 -121.58182 23 ft 0 kts 211°
2026-05-05 01:32 38.69077 -121.58185 22 ft 1 kts 211°
2026-05-05 01:32 38.69062 -121.58196 22 ft 4 kts 211°
2026-05-05 01:33 38.69035 -121.58241 22 ft 9 kts 269°
2026-05-05 01:33 38.69102 -121.58289 24 ft 16 kts 357°
2026-05-05 01:33 38.69231 -121.58291 21 ft 20 kts
2026-05-05 01:33 38.69369 -121.58288 21 ft 20 kts
2026-05-05 01:34 38.69513 -121.58285 21 ft 21 kts
2026-05-05 01:34 38.69612 -121.58339 21 ft 10 kts 274°
2026-05-05 01:34 38.69614 -121.58446 21 ft 14 kts 271°
2026-05-05 01:34 38.69605 -121.58566 21 ft 13 kts 232°
2026-05-05 01:35 38.69525 -121.58596 21 ft 12 kts 184°
2026-05-05 01:35 38.69436 -121.58591 21 ft 13 kts 154°
2026-05-05 01:35 38.69386 -121.58501 21 ft 13 kts 144°
2026-05-05 01:35 38.69306 -121.58491 23 ft 10 kts 204°
2026-05-05 01:36 38.69283 -121.58553 21 ft 5 kts 286°
2026-05-05 01:36 38.69291 -121.58581 23 ft 0 kts 289°
2026-05-05 01:36 38.69291 -121.58583 23 ft 0 kts 289°